This is the latest recevied weather packets stored in our database for station/object 9M4RBN-3. If no packets are shown the sender has not sent any weather packets the latest 10 day(s).
| Time | Temp. | Humidity | Pressure | Rain* | Wind** | Luminosity | Snow |
|---|---|---|---|---|---|---|---|
| 1777552589 | 26.11° C | 53% | 1015.1 hPa | - | - | - | - |
| 1777551689 | 26.11° C | 58% | 1014.9 hPa | - | - | - | - |
| 1777550789 | 25.56° C | 47% | 1014.6 hPa | - | - | - | - |
| 1777545388 | 25.56° C | 37% | 1013 hPa | - | - | - | - |
| 1777544488 | 26.11° C | 40% | 1013.1 hPa | - | - | - | - |
| 1777543588 | 26.67° C | 55% | 1013.1 hPa | - | - | - | - |
| 1777542688 | 26.11° C | 59% | 1013.1 hPa | - | - | - | - |
| 1777541788 | 26.11° C | 39% | 1013.4 hPa | - | - | - | - |
| 1777540888 | 26.67° C | 46% | 1012.4 hPa | - | - | - | - |
| 1777539988 | 26.67° C | 44% | 1012.7 hPa | - | - | - | - |
| 1777538188 | 27.22° C | 51% | 1012.5 hPa | - | - | - | - |
| 1777537288 | 27.22° C | 51% | 1012.9 hPa | - | - | - | - |
| 1777536388 | 27.22° C | 51% | 1013 hPa | - | - | - | - |
| 1777534588 | 27.22° C | 51% | 1012.8 hPa | - | - | - | - |
| 1777533687 | 26.67° C | 50% | 1013.3 hPa | - | - | - | - |
| 1777532787 | 26.67° C | 51% | 1013.7 hPa | - | - | - | - |
| 1777531887 | 26.67° C | 51% | 1014.1 hPa | - | - | - | - |
| 1777530987 | 26.11° C | 51% | 1014.2 hPa | - | - | - | - |
| 1777530087 | 26.11° C | 52% | 1014.3 hPa | - | - | - | - |
| 1777529187 | 26.11° C | 52% | 1014.6 hPa | - | - | - | - |
| 1777528287 | 26.11° C | 53% | 1014.6 hPa | - | - | - | - |
| 1777527387 | 26.11° C | 53% | 1015 hPa | - | - | - | - |
| 1777526487 | 26.11° C | 53% | 1015.2 hPa | - | - | - | - |
| 1777525587 | 26.11° C | 55% | 1015.5 hPa | - | - | - | - |
| 1777524687 | 25.56° C | 58% | 1015.9 hPa | - | - | - | - |
* Rain since midnight (hover to see other rain measurements)
** Current wind speed in m/s (hover to see current wind gust speed)